Clayton Lake, ME

4:07 PM EDT on March 30, 2017 (GMT -0400)
Clayton Lake

Weather History for K40B - February, 2012

Change the Weather History Date:

Tuesday, February 14, 2012

  Actual Average Record
Temperature  
Mean Temperature 8 °F -  
Max Temperature 33 °F 22 °F 34 °F (2013)
Min Temperature -17 °F -6 °F -27 °F (2003)
Degree Days  
Heating Degree Days 57    
Moisture  
Dew Point 2 °F    
Average Humidity 66    
Maximum Humidity 78    
Minimum Humidity 47    
Precipitation  
Precipitation 0.04 in - - ()
Sea Level Pressure  
Sea Level Pressure 30.06 in    
Wind  
Wind Speed 3 mph (SSW)    
Max Wind Speed 13 mph    
Max Gust Speed 26 mph    
Averages and records for this station are not official NWS values.
T = Trace of Precipitation, MM = Missing Value Source: NWS Daily Summary

Daily Weather History Graph

Daily Weather History Graph

Search for Another Location

Airport or City:

Trip Planner

Search our weather history database for the weather conditions in past years. The results will help you decide how hot, cold, wet, or windy it might be!

Date:

Astronomy

Feb. 14, 2012 Rise Set
Actual Time 6:44 AM EST 5:00 PM EST
Civil Twilight 6:13 AM EST 5:32 PM EST
Nautical Twilight 5:37 AM EST 6:07 PM EST
Astronomical Twilight 5:02 AM EST 6:42 PM EST
Moon 12:33 AM EST (2/14) 9:54 AM EST (2/14)
Length of Visible Light 11h 19m
Length of Day
10h 16m
Waning Gibbous, 50% of the Moon is Illuminated
Feb 14
Waning Gibbous
Feb 14
Last Quarter
Feb 21
New
Feb 29
First Quarter
Mar 8
Full

Hourly Weather History & Observations

Time (EST) Temp. Windchill Dew Point Humidity Pressure Visibility Wind Dir Wind Speed Gust Speed Precip Events Conditions
12:25 AM -11.9 °F - -18.0 °F 74% 29.99 in - Calm Calm - N/A   Unknown
1:25 AM -14.3 °F - -20.4 °F 74% 30.01 in - Calm Calm - N/A   Unknown
2:25 AM -15.7 °F - -21.6 °F 75% 30.04 in - Calm Calm - N/A   Unknown
3:25 AM -17.5 °F - -23.1 °F 76% 30.07 in - Calm Calm - 0.00 in   Unknown
4:25 AM -17.7 °F - -22.7 °F 78% 30.09 in - Calm Calm - N/A   Unknown
5:25 AM -12.6 °F - -17.9 °F 78% 30.10 in - Calm Calm - 0.01 in   Unknown
6:25 AM -9.8 °F - -16.6 °F 72% 30.11 in - Calm Calm - 0.01 in   Unknown
7:25 AM -4.7 °F -13.2 °F -13.4 °F 66% 30.11 in - Variable 3.5 mph - 0.01 in   Unknown
8:25 AM 1.6 °F -8.0 °F -8.7 °F 62% 30.11 in - Variable 4.6 mph - 0.01 in   Unknown
9:25 AM 8.4 °F - -1.3 °F 65% 30.11 in - Calm Calm - 0.00 in   Unknown
10:25 AM 17.8 °F 12.5 °F 6.8 °F 62% 30.09 in - Variable 3.5 mph - N/A   Unknown
11:25 AM 21.2 °F 13.6 °F 9.0 °F 59% 30.06 in - Variable 5.8 mph - N/A   Unknown
12:26 PM 26.6 °F 15.7 °F 15.6 °F 63% 30.04 in - South 12.7 mph 17.3 mph N/A   Unknown
1:25 PM 30.9 °F 21.7 °F 16.7 °F 56% 30.02 in - SSW 11.5 mph 18.4 mph N/A   Unknown
2:25 PM 33.4 °F 24.8 °F 14.9 °F 47% 30.01 in - SW 11.5 mph 26.5 mph N/A   Unknown
3:25 PM 31.6 °F 23.1 °F 14.7 °F 50% 30.02 in - SSW 10.4 mph 17.3 mph N/A   Unknown
4:25 PM 31.5 °F 23.5 °F 16.2 °F 53% 30.02 in - SSW 9.2 mph 18.4 mph N/A   Unknown
5:25 PM 28.9 °F 22.8 °F 17.6 °F 63% 30.04 in - Variable 5.8 mph - N/A   Unknown
6:25 PM 27.3 °F 20.9 °F 17.4 °F 66% 30.05 in - Variable 5.8 mph - N/A   Unknown
7:25 PM 28.2 °F 21.0 °F 18.0 °F 65% 30.05 in - Variable 6.9 mph - 0.00 in   Unknown
8:25 PM 25.5 °F 17.8 °F 17.4 °F 71% 30.06 in - Variable 6.9 mph - N/A   Unknown
9:25 PM 27.3 °F - 17.8 °F 67% 30.06 in - Calm Calm - N/A   Unknown
10:25 PM 27.3 °F 19.9 °F 17.6 °F 67% 30.07 in - South 6.9 mph - N/A   Unknown
11:25 PM 26.4 °F 18.9 °F 16.9 °F 67% 30.08 in - Variable 6.9 mph - N/A   Unknown